#timestamp,LO_Frequency,Hit,StdDev 
1512187215.7,286047014.7,N
1512187235.5,286047017.9,N
1512187255.3,286047016.5,N
1512187275.1,286047014.1,N
1512187295.9,286047012.7,N
1512187315.7,286047013.4,N
1512187335.5,286047013.5,Y
1512187355.4,286046997.2,P
1512187375.2,286046997.0,N
1512187395.0,286047000.8,N
1512187395.9,286047000.8,N
1512187415.8,286047001.8,N
1512187435.6,286047001.9,N
1512187455.4,286047002.2,N
1512187475.3,286047005.9,N
1512187495.1,286047005.7,N
1512187496.0,286047005.7,N
1512187515.8,286047003.4,N
1512187535.7,286047005.5,N
1512187555.5,286047004.5,N
1512187575.3,286047004.9,N
1512187595.1,286047003.2,N
1512187615.9,286046999.8,N
1512187635.7,286047000.6,N
1512187655.5,286046999.0,N
1512187675.4,286046998.2,N
1512187695.2,286047000.5,N
1512187715.0,286047000.0,N
1512187715.9,286047000.0,N
1512187735.8,286047002.7,N
1512187755.6,286046998.5,N
1512187775.4,286046997.3,N
1512187795.3,286046999.6,N
1512187815.1,286046999.6,N
1512187816.0,286046999.6,N
1512187835.8,286047000.6,N
1512187855.7,286046999.3,N
1512187875.5,286046999.2,N
1512187895.3,286047001.1,N
1512187915.1,286047000.0,N
1512187935.9,286047002.3,N
1512187955.7,286047001.3,N
1512187975.5,286047005.7,N
1512187995.4,286047004.7,N
1512188015.2,286047004.2,N
1512188035.0,286047001.7,N
1512188035.9,286047001.7,N
1512188055.8,286047002.5,N
1512188075.6,286046998.2,N
1512188095.4,286046998.6,N
1512188115.3,286047002.4,N
1512188135.1,286047001.2,N
1512188136.0,286047001.2,N
1512188155.8,286046998.6,N
1512188175.7,286047000.0,N
1512188195.5,286046999.3,N
1512188215.3,286046998.1,N
1512188235.2,286047001.3,N
1512188255.9,286047002.2,N
1512188275.7,286047004.1,N
1512188295.5,286047003.6,N
1512188315.4,286047004.2,N
1512188335.2,286047001.6,N
1512188355.0,286047001.3,N
1512188355.9,286047001.3,N
1512188375.8,286047003.1,N
1512188395.6,286047005.9,N
1512188415.4,286047001.9,N
1512188435.3,286047004.8,N
1512188455.1,286047005.2,N
1512188475.8,286047008.0,Y
1512188495.7,286047008.5,P
1512188515.5,286047011.3,P
1512188535.3,286047018.1,P
1512188555.2,286047025.1,Y
1512188575.0,286047014.9,P
1512188575.9,286047014.9,P
1512188595.7,286047014.8,P
1512188615.6,286047016.1,Y
1512188635.4,286047005.4,P
1512188655.2,286047005.5,N
1512188675.1,286047005.3,N
1512188676.0,286047005.3,N
1512188695.8,286047010.6,Y
1512188715.6,286047006.5,P
1512188735.5,286047010.7,P
1512188755.3,286047005.7,P
1512188775.1,286047003.8,N
1512188795.9,286047000.4,N
1512188815.7,286047002.7,N
1512188835.5,286047004.7,N
1512188855.4,286047009.0,Y
1512188875.2,286047007.3,P
1512188895.0,286047006.6,P
1512188895.9,286047006.6,P
1512188915.8,286047011.2,Y
1512188935.6,286047006.1,P
1512188955.4,286047013.1,P
1512188975.3,286047018.6,P
1512188995.1,286047019.8,Y
1512189015.8,286047010.0,P
1512189035.7,286047013.5,P
1512189055.5,286047012.9,P
1512189075.3,286047015.1,Y
1512189095.2,286046999.7,P
1512189115.0,286047004.7,N
1512189115.9,286047004.7,N
1512189135.7,286047005.4,N
1512189155.6,286047007.3,N
1512189175.4,286047007.6,N
1512189195.2,286047007.4,N
1512189215.1,286047005.4,N
1512189216.0,286047005.4,N
1512189235.8,286047007.0,N
1512189255.6,286047004.7,N
1512189275.5,286047004.8,N
1512189295.3,286047001.4,N
1512189315.1,286046999.9,N
1512189335.8,286047000.4,N
1512189355.7,286046997.8,N
1512189375.5,286046998.0,N
1512189395.3,286046994.9,N
1512189415.2,286046994.0,N
1512189435.0,286046991.3,N
1512189435.9,286046991.3,N
1512189455.7,286046988.2,N
1512189475.6,286046984.5,N
1512189495.4,286046982.6,N
1512189515.2,286046984.4,N
1512189535.1,286046983.3,N
1512189536.0,286046983.3,N
1512189555.8,286046979.8,N
1512189575.6,286046978.4,N
1512189595.5,286046986.3,N
1512189615.3,286046989.3,N
1512189635.1,286046983.2,N
1512189655.9,286046981.5,N
1512189675.7,286046980.0,N
1512189695.5,286046979.5,N
1512189715.3,286046976.0,N
1512189735.2,286046975.0,N
1512189755.0,286046975.2,N
1512189755.9,286046975.2,N
1512189775.7,286046973.6,N
1512189795.6,286046966.8,Y
1512189815.4,286046977.9,P
1512189835.2,286046981.9,P
1512189855.1,286046983.0,P
1512189856.0,286046983.0,Y
1512189875.8,286046995.2,P
1512189895.6,286046994.5,N
1512189915.5,286046996.4,N
1512189935.3,286046993.0,N
1512189955.1,286046989.8,N
1512189975.9,286046995.7,N
1512189995.7,286046996.9,N
1512190015.5,286046992.5,N
1512190035.4,286046990.7,N
1512190055.2,286046990.6,N
1512190075.0,286046990.8,N
1512190075.9,286046990.8,N
1512190095.8,286046988.7,Y
1512190115.6,286046995.7,P
1512190135.4,286046995.5,N
1512190155.3,286046993.3,P
1512190175.1,286046989.1,Y
1512190195.8,286046992.5,P
1512190215.7,286046990.6,P
1512190235.5,286046988.6,P
1512190255.3,286046991.0,Y
1512190275.2,286046998.4,P
1512190295.9,286046998.3,N
1512190315.7,286046996.9,N
1512190335.6,286046996.7,N
1512190355.4,286046996.6,N
1512190375.2,286047005.6,N
1512190395.1,286047005.7,N
1512190396.0,286047005.7,N
1512190415.8,286047005.8,N
1512190435.6,286047006.6,N
1512190455.5,286047008.2,N
1512190475.3,286047007.8,N
1512190495.1,286047008.0,N
1512190515.8,286047010.5,N
1512190535.7,286047008.8,N
1512190555.5,286047007.3,N
1512190575.3,286047012.4,N
1512190595.2,286047015.1,N
1512190615.0,286047012.4,N
1512190615.9,286047012.4,N
1512190635.7,286047008.8,N
1512190655.6,286047011.8,N
1512190675.4,286047014.8,N
1512190695.2,286047015.7,N
1512190715.1,286047020.3,Y
1512190716.0,286047020.3,P
1512190735.8,286047012.3,N
1512190755.6,286047011.2,N
1512190775.5,286047013.0,N
1512190795.3,286047010.0,N
